[[{"header":{"parameterUnit":"m.s-1","parameterCategory":1,"la1":30.2991,"la2":30.254,"lo1":-89.0895,"lo2":-89.0444,"dy":0.0017,"dx":0.0017,"nx":28,"ny":28,"refTime":"2024-07-24T21:00:00:Z","depth":0,"parameterNumber":2,"parameterNumberName":"U-component_of_WINDS"},"data":[0,0,0,0,0,0,0,0,0,0,0,0,0,0,0,0,0,0,0,0,0,0,0,0,0,0,0,0,0,0,0,0,0,0,0,0,0,0,0,0,0,0,0,0,0,0,0,0,0,0,0,0,0,0,0,0,0,0,2.6678,2.6678,0,2.6674,2.6674,2.6674,2.6592,2.659,2.6588,2.6586,2.6584,2.6585,2.6587,0,0,0,0,0,0,0,0,0,0,0,0,0,2.6617,2.6619,2.6678,2.6678,2.6678,2.6674,2.6674,2.6674,2.6593,2.659,2.6588,2.6585,2.6583,2.6585,2.6587,0,0,0,0,0,0,0,0,0,0,0,0,0,2.6632,2.6619,2.6678,2.6637,2.6633,2.6674,2.6674,2.6674,2.6593,2.659,2.6587,2.6584,2.6582,2.6585,2.6588,2.6667,0,0,2.6596,2.6597,0,0,0,0,0,0,0,0,2.6631,2.6634,2.6643,2.664,2.6636,2.663,2.6651,2.6672,2.6594,2.6609,2.6586,2.6583,2.6602,2.6603,2.6609,2.6667,2.6667,2.6596,2.6598,2.6599,2.66,0,0,0,0,0,0,0,2.663,2.6634,2.6676,2.6644,2.6639,2.6619,2.6618,2.6655,2.6623,2.6607,2.6601,2.6602,2.6599,2.6606,2.6608,2.6667,2.6596,2.6599,2.6601,2.6602,2.6788,2.6791,0,0,0,0,0,0,2.6635,2.6633,2.6677,2.6676,2.6626,2.6623,2.6621,2.6635,2.6622,2.6617,2.6604,2.6598,2.6603,2.6605,2.6608,2.6698,2.6599,2.6602,2.6604,2.6784,2.6788,2.6792,0,0,0,0,0,0,2.6634,2.6639,2.6677,2.6653,2.6656,2.6627,2.6644,2.6637,2.6644,2.662,2.6614,2.6617,2.6601,2.6604,2.6652,2.6696,2.6603,2.6606,2.6781,2.6786,2.679,2.688,0,0,0,0,0,0,2.6632,2.6639,2.6669,2.6654,2.6658,2.6722,2.6647,2.6639,2.6649,2.664,2.6631,2.6626,2.6598,2.6649,2.6655,2.6699,2.6608,2.6776,2.6783,2.6789,2.6873,2.6887,2.6899,0,0,0,0,0,2.663,2.6696,2.6671,2.6677,2.6695,2.6724,2.6726,2.6693,2.6653,2.6682,2.6667,2.6626,2.6691,2.6654,2.6661,2.6706,2.6773,2.6781,2.6788,2.6867,2.6884,2.6899,0,0,0,0,0,0,2.6718,2.6693,2.6666,2.6728,2.6729,2.671,2.6747,2.6713,2.6725,2.6717,2.6675,2.6674,2.6728,2.6722,2.6682,2.6781,2.6725,2.6734,2.6783,2.6799,2.6812,2.6812,2.661,0,0,0,0,0,2.6744,2.677,2.6747,2.6805,2.6806,2.6777,2.6788,2.6762,2.6761,2.6761,2.6749,2.6751,2.677,2.6785,2.6802,2.6872,2.6868,2.6906,2.692,2.6931,2.6938,2.6972,2.6988,2.6816,2.6816,2.6816,0,0,2.6799,2.6789,2.6808,2.6822,2.6819,2.6846,2.6777,2.681,2.6829,2.6766,2.681,2.6802,2.68,2.6859,2.6884,2.6856,2.6985,2.694,2.6949,2.6951,2.6982,2.6998,2.7012,2.6821,2.682,2.6819,0,0,2.6913,2.6909,2.6954,2.6953,2.6949,2.6928,2.694,2.6926,2.6918,2.6961,2.6914,2.6937,2.6974,2.6973,2.6978,2.709,2.7053,2.7097,2.7167,2.72,2.7214,2.7225,2.7263,2.7277,2.7106,2.7106,2.7106,0,2.6982,2.702,2.6982,2.7017,2.7023,2.6967,2.7013,2.7013,2.7016,2.7022,2.699,2.7033,2.7028,2.7084,2.7112,2.7118,2.7129,2.7097,2.7215,2.7226,2.7237,2.7272,2.7286,2.7111,2.711,2.711,2.7109,0,2.7103,2.7131,2.7169,2.717,2.7182,2.7222,2.719,2.7206,2.7179,2.7162,2.7206,2.7199,2.7212,2.7224,2.7199,2.7277,2.7259,2.7222,2.7164,2.7259,2.7291,2.7305,2.7118,2.7117,2.7115,2.7114,0,0,2.7272,2.7251,2.7265,2.7264,2.7256,2.7276,2.7314,2.7326,2.7339,2.7344,2.7372,2.7404,2.7368,2.7374,2.7348,2.7378,2.7464,2.7336,2.7336,2.7358,2.7547,2.7573,2.759,2.744,2.7443,2.7445,2.7546,0,2.7379,2.744,2.7406,2.7472,2.7495,2.7442,2.7474,2.7472,2.7457,2.7475,2.7459,2.7481,2.7434,2.7437,2.7464,2.7448,2.7501,2.7441,2.7466,2.7467,2.7465,2.7607,2.7635,2.7731,2.7559,2.7561,2.7563,0,2.7512,2.7519,2.7587,2.7571,2.758,2.7609,2.7616,2.7635,2.7631,2.7618,2.7624,2.759,2.7625,2.757,2.7617,2.7576,2.7585,2.7579,2.7581,2.7581,2.7519,2.7608,2.7761,2.7775,2.7583,2.7581,2.758,0,2.7624,2.7652,2.7694,2.7696,2.768,2.7701,2.7696,2.7689,2.7698,2.7705,2.771,2.7722,2.7728,2.7738,2.7708,2.7671,2.7758,2.7701,2.7747,2.7748,2.7766,2.7765,2.7921,2.7776,2.7776,2.7776,2.7775,0,2.7746,2.7789,2.7744,2.777,2.7816,2.7778,2.7824,2.7813,2.7808,2.783,2.7786,2.7809,2.7769,2.7788,2.7766,2.7806,2.781,2.78,2.7793,2.7802,2.7803,2.7806,2.7797,2.7779,2.7778,2.7778,2.7777,0,2.7879,2.7851,2.7893,2.7874,2.787,2.7904,2.7888,2.7911,2.7893,2.7922,2.7927,2.7899,2.7919,2.789,2.7908,2.7892,2.7947,2.7932,2.7948,2.7943,2.7989,2.7984,2.815,2.8169,2.8015,2.8017,2.8018,0,2.7957,2.7988,2.7971,2.7982,2.7979,2.7999,2.8007,2.797,2.7981,2.7978,2.8001,2.8017,2.8027,2.8061,2.8042,2.8054,2.8037,2.8094,2.8038,2.8046,2.8034,2.8032,2.8034,2.8105,2.8107,2.8108,2.811,0,2.8098,2.8082,2.8095,2.8103,2.8113,2.8118,2.812,2.8132,2.8093,2.8107,2.8126,2.8134,2.815,2.8165,2.8172,2.8167,2.8132,2.8128,2.8138,2.8147,2.8154,2.8148,2.7976,2.8123,2.8122,2.8121,2.812,2.812,2.8204,2.8228,2.8219,2.8234,2.8231,2.8233,2.8253,2.8237,2.8251,2.826,2.8239,2.8262,2.8257,2.8262,2.8261,2.8278,2.8253,2.827,2.8273,2.8277,2.8283,2.8153,2.828,2.828,2.8279,2.8279,2.8279,0,2.834,2.8331,2.8346,2.8348,2.836,2.8325,2.8325,2.8337,2.8358,2.8355,2.8365,2.8386,2.84,2.8382,2.8394,2.8411,2.8395,2.8415,2.8412,2.8411,2.8307,2.8295,2.8428,2.8427,2.8427,2.8427,2.8427,2.8427,2.8412,2.845,2.8433,2.8469,2.846,2.8481,2.8483,2.8485,2.8482,2.8506,2.8517,2.8505,2.8496,2.8506,2.8517,2.8512,2.8517,2.8542,2.8531,2.8433,2.8419,2.8405,2.8393,2.8544,2.8544,2.8633,2.8634,2.8635]},{"header":{"parameterUnit":"m.s-1","parameterCategory":1,"la1":30.2991,"la2":30.254,"lo1":-89.0895,"lo2":-89.0444,"dy":0.0017,"dx":0.0017,"nx":28,"ny":28,"refTime":"2024-07-24T21:00:00:Z","depth":0,"parameterNumber":3,"parameterNumberName":"V-component_of_WINDS"},"data":[0,0,0,0,0,0,0,0,0,0,0,0,0,0,0,0,0,0,0,0,0,0,0,0,0,0,0,0,0,0,0,0,0,0,0,0,0,0,0,0,0,0,0,0,0,0,0,0,0,0,0,0,0,0,0,0,0,0,1.3076,1.3079,0,1.3351,1.3354,1.3357,1.3442,1.3441,1.344,1.3439,1.3722,1.373,1.3739,0,0,0,0,0,0,0,0,0,0,0,0,0,1.2625,1.2633,1.3076,1.3079,1.3083,1.335,1.3354,1.3358,1.3443,1.3441,1.3439,1.3438,1.3719,1.3729,1.374,0,0,0,0,0,0,0,0,0,0,0,0,0,1.2852,1.2635,1.3075,1.3157,1.3167,1.335,1.3354,1.3359,1.3443,1.3441,1.3439,1.3437,1.3715,1.3728,1.3741,1.3862,0,0,1.3781,1.3787,0,0,0,0,0,0,0,0,1.2839,1.2869,1.3142,1.3152,1.3164,1.336,1.3299,1.3528,1.3444,1.3338,1.3439,1.3436,1.3603,1.3625,1.3681,1.3875,1.3887,1.3782,1.379,1.3796,1.38,0,0,0,0,0,0,0,1.2823,1.2857,1.3185,1.3146,1.3159,1.318,1.3211,1.3343,1.3479,1.3347,1.3354,1.3386,1.3609,1.3668,1.3689,1.3892,1.3782,1.3794,1.3802,1.3807,1.4198,1.42,0,0,0,0,0,0,1.2794,1.2844,1.3176,1.3193,1.2993,1.319,1.3224,1.3299,1.3477,1.3503,1.3387,1.3389,1.3647,1.3673,1.3699,1.3852,1.3796,1.3808,1.3816,1.4195,1.4198,1.4201,0,0,0,0,0,0,1.2784,1.2822,1.3165,1.302,1.3066,1.32,1.3284,1.3306,1.3366,1.3507,1.3532,1.3423,1.3646,1.368,1.3821,1.3863,1.3814,1.3826,1.4192,1.4196,1.42,1.4159,0,0,0,0,0,0,1.277,1.2818,1.2866,1.3021,1.3073,1.3282,1.3287,1.3313,1.3388,1.3393,1.3548,1.3572,1.3647,1.38,1.3834,1.388,1.3836,1.4189,1.4194,1.4198,1.4158,1.4161,1.4165,0,0,0,0,0,1.2754,1.2844,1.2868,1.2907,1.3135,1.3284,1.3314,1.3399,1.3391,1.344,1.353,1.3567,1.3852,1.3814,1.3852,1.3903,1.4187,1.4193,1.4198,1.4156,1.4161,1.4164,0,0,0,0,0,0,1.2692,1.2866,1.2894,1.3037,1.3145,1.3298,1.3363,1.3402,1.3515,1.3514,1.3615,1.365,1.3782,1.3857,1.3811,1.4029,1.4021,1.4035,1.3976,1.3982,1.3985,1.3965,1.3847,0,0,0,0,0,1.2694,1.2801,1.2947,1.306,1.3112,1.3227,1.3296,1.3352,1.3468,1.3514,1.3615,1.3727,1.3842,1.3916,1.403,1.4168,1.4203,1.4222,1.4225,1.4227,1.4238,1.4317,1.4327,1.4219,1.4219,1.4219,0,0,1.2702,1.281,1.2871,1.305,1.314,1.3248,1.3266,1.3379,1.3461,1.3532,1.367,1.3748,1.3879,1.4018,1.4085,1.4085,1.4275,1.4235,1.4235,1.4246,1.4323,1.4333,1.4342,1.4223,1.4222,1.4222,0,0,1.2771,1.2863,1.2966,1.3056,1.3192,1.3268,1.3292,1.3439,1.3493,1.3633,1.3689,1.3786,1.3983,1.4074,1.4145,1.4245,1.4283,1.4279,1.4298,1.4373,1.4382,1.439,1.4426,1.4437,1.429,1.429,1.4289,0,1.2763,1.2928,1.3015,1.3125,1.3202,1.327,1.3375,1.3458,1.3624,1.3675,1.3672,1.3918,1.4012,1.4173,1.4197,1.4253,1.4284,1.4263,1.4373,1.4382,1.4391,1.4427,1.444,1.4288,1.4288,1.4289,1.4289,0,1.2911,1.3024,1.3091,1.3249,1.3333,1.344,1.3543,1.3618,1.3665,1.3741,1.3883,1.3996,1.4134,1.4176,1.4224,1.4344,1.434,1.4353,1.4348,1.4399,1.4434,1.4448,1.4286,1.4287,1.4287,1.4288,0,0,1.2951,1.3154,1.3177,1.3249,1.3402,1.3492,1.3601,1.3735,1.3797,1.3908,1.4003,1.4166,1.4179,1.426,1.4319,1.4385,1.4457,1.4391,1.4396,1.44,1.4596,1.4585,1.4599,1.4481,1.4484,1.4487,1.4585,0,1.304,1.3239,1.3319,1.348,1.3585,1.365,1.3746,1.385,1.3923,1.4023,1.4104,1.4218,1.4227,1.4277,1.4344,1.4433,1.4497,1.4427,1.4571,1.4575,1.4537,1.4617,1.4607,1.4694,1.4599,1.4601,1.4603,0,1.3171,1.3282,1.3453,1.3593,1.364,1.3724,1.3852,1.3947,1.4066,1.4115,1.4204,1.4259,1.4376,1.436,1.4523,1.4474,1.4537,1.4589,1.4594,1.4612,1.4593,1.4638,1.4724,1.4737,1.4625,1.4623,1.4622,0,1.3183,1.3376,1.3503,1.3562,1.3728,1.3786,1.3857,1.3974,1.4049,1.4161,1.421,1.4334,1.4402,1.4497,1.4583,1.4564,1.4738,1.473,1.4782,1.4779,1.4817,1.4814,1.4915,1.4855,1.4855,1.4855,1.4855,0,1.3275,1.3377,1.351,1.3589,1.3705,1.3795,1.3908,1.3984,1.4087,1.4181,1.4245,1.4331,1.444,1.4541,1.4609,1.4733,1.4763,1.4806,1.4823,1.4801,1.4796,1.4845,1.4841,1.4858,1.4858,1.4857,1.4856,0,1.3309,1.3402,1.3545,1.3689,1.3728,1.3807,1.3931,1.4009,1.4084,1.4202,1.4235,1.4353,1.4475,1.457,1.4729,1.4774,1.4906,1.4924,1.4865,1.4874,1.4921,1.4916,1.5059,1.5082,1.5005,1.5006,1.5006,0,1.3362,1.3442,1.3594,1.3661,1.3732,1.3839,1.3915,1.4007,1.4084,1.4224,1.4285,1.4411,1.4517,1.4708,1.4808,1.4929,1.4952,1.4993,1.497,1.4945,1.4953,1.4947,1.4956,1.4996,1.4997,1.4997,1.4997,0,1.3446,1.3487,1.3594,1.3717,1.3805,1.3906,1.4009,1.406,1.4171,1.4253,1.4378,1.4459,1.462,1.4745,1.4876,1.495,1.4992,1.5003,1.5022,1.5001,1.4964,1.4985,1.4874,1.5,1.5,1.4999,1.4999,1.4999,1.3492,1.3565,1.3683,1.38,1.3886,1.398,1.406,1.4145,1.425,1.4388,1.4435,1.4563,1.4679,1.486,1.4934,1.5036,1.5038,1.5065,1.5072,1.5078,1.5075,1.4946,1.506,1.506,1.506,1.506,1.506,0,1.3579,1.3658,1.3764,1.3905,1.3996,1.4026,1.414,1.4215,1.4327,1.4431,1.4533,1.4675,1.4795,1.4904,1.5029,1.5089,1.5112,1.5119,1.5116,1.5133,1.5066,1.5038,1.5099,1.5099,1.5099,1.5099,1.5099,1.5099,1.3636,1.3762,1.3817,1.3986,1.4064,1.419,1.4252,1.4339,1.4423,1.4579,1.4678,1.4748,1.4854,1.4986,1.5098,1.5127,1.517,1.5172,1.5206,1.5142,1.5137,1.5133,1.5106,1.5181,1.5181,1.5265,1.5265,1.5266]}]]